Time,TemperatureF,DewpointF,PressureIn,WindDirection,WindDirectionDegrees,WindSpeedMPH,WindSpeedGustMPH,Humidity,HourlyPrecipIn,Conditions,Clouds,dailyrainin,SolarRadiationWatts/m^2,SoftwareType,DateUTC
2013-03-26 00:00:00,46.3,44.9,30.02,SSW,192,0.0,0.0,95,0.00,,,0.00,0,Wunderground v.1.15,2013-03-26 07:00:00,
2013-03-26 00:05:00,46.3,44.9,30.02,SSW,210,0.0,0.0,95,0.00,,,0.00,0,Wunderground v.1.15,2013-03-26 07:05:00,
2013-03-26 00:10:00,46.3,44.9,30.02,SSW,210,0.0,0.0,95,0.00,,,0.00,0,Wunderground v.1.15,2013-03-26 07:10:00,
2013-03-26 00:20:00,46.3,45.2,30.02,SSW,210,1.0,1.0,96,0.00,,,0.00,0,Wunderground v.1.15,2013-03-26 07:20:00,
2013-03-26 00:29:00,46.3,45.2,30.02,South,186,1.0,1.0,96,0.00,,,0.00,0,Wunderground v.1.15,2013-03-26 07:29:00,
2013-03-26 00:35:00,46.3,45.5,30.03,SSW,194,1.0,1.0,97,0.00,,,0.00,0,Wunderground v.1.15,2013-03-26 07:35:00,
2013-03-26 00:45:00,46.2,45.4,30.02,SSW,199,0.0,2.0,97,0.00,,,0.00,0,Wunderground v.1.15,2013-03-26 07:45:00,
2013-03-26 00:50:00,46.2,45.4,30.03,SSW,204,3.0,3.0,97,0.00,,,0.00,0,Wunderground v.1.15,2013-03-26 07:50:00,
2013-03-26 00:55:00,46.2,45.4,30.02,SSW,196,3.0,3.0,97,0.00,,,0.00,0,Wunderground v.1.15,2013-03-26 07:55:00,
2013-03-26 01:00:00,46.2,45.7,30.03,SSW,202,1.0,1.0,98,0.00,,,0.00,0,Wunderground v.1.15,2013-03-26 08:00:00,
2013-03-26 01:10:00,46.1,45.6,30.02,SSW,204,3.0,3.0,98,0.00,,,0.00,0,Wunderground v.1.15,2013-03-26 08:10:00,
2013-03-26 01:20:00,46.1,45.6,30.02,SSW,197,1.0,1.0,98,0.00,,,0.00,0,Wunderground v.1.15,2013-03-26 08:20:00,
2013-03-26 01:29:00,46.0,45.7,30.02,SSW,206,3.0,3.0,99,0.00,,,0.00,0,Wunderground v.1.15,2013-03-26 08:29:00,
2013-03-26 01:35:00,46.0,45.7,30.02,SSW,203,1.0,3.0,99,0.00,,,0.00,0,Wunderground v.1.15,2013-03-26 08:35:00,
2013-03-26 01:40:00,46.0,45.7,30.02,SSW,198,5.0,5.0,99,0.00,,,0.00,0,Wunderground v.1.15,2013-03-26 08:40:00,
2013-03-26 01:50:00,46.0,45.7,30.02,South,187,0.0,0.0,99,0.00,,,0.00,0,Wunderground v.1.15,2013-03-26 08:50:00,
2013-03-26 02:00:00,45.9,45.6,30.02,SSW,195,0.0,0.0,99,0.00,,,0.00,0,Wunderground v.1.15,2013-03-26 09:00:00,
2013-03-26 02:05:00,45.9,45.6,30.02,SSW,195,1.0,1.0,99,0.00,,,0.00,0,Wunderground v.1.15,2013-03-26 09:05:00,
2013-03-26 02:10:00,45.9,45.6,30.02,SSW,195,0.0,0.0,99,0.00,,,0.00,0,Wunderground v.1.15,2013-03-26 09:10:00,
2013-03-26 02:20:00,46.1,45.8,30.02,SSW,193,0.0,0.0,99,0.00,,,0.00,0,Wunderground v.1.15,2013-03-26 09:20:00,
2013-03-26 02:25:00,46.2,46.2,30.02,SSW,195,1.0,1.0,100,0.00,,,0.00,0,Wunderground v.1.15,2013-03-26 09:25:00,
2013-03-26 02:35:00,46.3,46.0,30.01,SSW,192,5.0,5.0,99,0.00,,,0.00,0,Wunderground v.1.15,2013-03-26 09:35:00,
2013-03-26 02:40:00,46.3,46.0,30.01,SSW,193,1.0,1.0,99,0.00,,,0.00,0,Wunderground v.1.15,2013-03-26 09:40:00,
2013-03-26 02:45:00,46.3,46.0,30.01,SW,214,2.0,2.0,99,0.00,,,0.00,0,Wunderground v.1.15,2013-03-26 09:45:00,
2013-03-26 02:50:00,46.4,46.1,30.01,SSW,195,4.0,4.0,99,0.00,,,0.00,0,Wunderground v.1.15,2013-03-26 09:50:00,
2013-03-26 03:00:00,46.6,46.1,30.01,SW,223,2.0,2.0,98,0.00,,,0.00,0,Wunderground v.1.15,2013-03-26 10:00:00,
2013-03-26 03:10:00,46.6,46.1,30.01,SW,215,2.0,2.0,98,0.00,,,0.00,0,Wunderground v.1.15,2013-03-26 10:10:00,
2013-03-26 03:19:00,46.7,46.2,30.00,SSW,192,0.0,0.0,98,0.00,,,0.00,0,Wunderground v.1.15,2013-03-26 10:19:00,
2013-03-26 03:25:00,46.7,46.2,30.00,SSW,198,0.0,0.0,98,0.00,,,0.00,0,Wunderground v.1.15,2013-03-26 10:25:00,
2013-03-26 03:30:00,46.7,46.2,30.00,South,180,2.0,2.0,98,0.00,,,0.00,0,Wunderground v.1.15,2013-03-26 10:30:00,
2013-03-26 03:40:00,46.7,45.9,30.00,SSW,194,0.0,0.0,97,0.00,,,0.00,0,Wunderground v.1.15,2013-03-26 10:40:00,
2013-03-26 03:45:00,46.7,46.2,30.00,SSW,203,0.0,0.0,98,0.00,,,0.00,0,Wunderground v.1.15,2013-03-26 10:45:00,
2013-03-26 03:50:00,46.7,45.9,30.00,SSW,210,1.0,1.0,97,0.00,,,0.00,0,Wunderground v.1.15,2013-03-26 10:50:00,
2013-03-26 04:00:00,46.7,45.9,30.00,SSW,196,5.0,5.0,97,0.00,,,0.00,0,Wunderground v.1.15,2013-03-26 11:00:00,
2013-03-26 04:10:00,46.7,45.9,29.99,SSW,194,0.0,0.0,97,0.00,,,0.00,0,Wunderground v.1.15,2013-03-26 11:10:00,
2013-03-26 04:15:00,46.7,46.2,29.99,South,186,1.0,1.0,98,0.00,,,0.00,0,Wunderground v.1.15,2013-03-26 11:15:00,
2013-03-26 04:25:00,46.7,46.2,29.99,South,185,1.0,1.0,98,0.00,,,0.00,0,Wunderground v.1.15,2013-03-26 11:25:00,
2013-03-26 04:30:00,46.7,45.9,29.99,SSW,205,0.0,0.0,97,0.00,,,0.00,0,Wunderground v.1.15,2013-03-26 11:30:00,
2013-03-26 04:35:00,46.7,46.2,29.99,South,190,2.0,2.0,98,0.00,,,0.00,0,Wunderground v.1.15,2013-03-26 11:35:00,
2013-03-26 04:40:00,46.7,45.9,29.99,South,190,0.0,0.0,97,0.00,,,0.00,0,Wunderground v.1.15,2013-03-26 11:40:00,
2013-03-26 04:50:00,46.7,46.2,29.98,SSW,211,0.0,0.0,98,0.00,,,0.00,0,Wunderground v.1.15,2013-03-26 11:50:00,
2013-03-26 05:00:00,46.7,46.2,29.99,SSW,196,0.0,0.0,98,0.00,,,0.00,0,Wunderground v.1.15,2013-03-26 12:00:00,
2013-03-26 05:05:00,46.8,46.3,29.99,South,182,1.0,1.0,98,0.00,,,0.00,0,Wunderground v.1.15,2013-03-26 12:05:00,
2013-03-26 05:15:00,46.8,46.3,29.99,SSW,195,1.0,2.0,98,0.00,,,0.00,0,Wunderground v.1.15,2013-03-26 12:15:00,
2013-03-26 05:20:00,46.8,46.3,29.99,SSW,195,2.0,2.0,98,0.00,,,0.00,0,Wunderground v.1.15,2013-03-26 12:20:00,
2013-03-26 05:25:00,46.8,46.0,29.98,SSW,204,0.0,2.0,97,0.00,,,0.00,0,Wunderground v.1.15,2013-03-26 12:25:00,
2013-03-26 05:30:00,46.7,45.9,29.99,SSW,192,3.0,3.0,97,0.00,,,0.00,0,Wunderground v.1.15,2013-03-26 12:30:00,
2013-03-26 05:40:00,46.7,45.9,29.99,SW,215,1.0,1.0,97,0.00,,,0.00,0,Wunderground v.1.15,2013-03-26 12:40:00,
2013-03-26 05:50:00,46.7,45.9,29.99,South,191,1.0,1.0,97,0.00,,,0.00,0,Wunderground v.1.15,2013-03-26 12:50:00,
2013-03-26 05:55:00,46.7,45.9,29.99,SSW,211,2.0,2.0,97,0.00,,,0.00,0,Wunderground v.1.15,2013-03-26 12:55:00,
2013-03-26 06:00:00,46.7,45.9,29.99,SSW,211,0.0,0.0,97,0.00,,,0.00,0,Wunderground v.1.15,2013-03-26 13:00:00,
2013-03-26 06:10:00,46.7,45.9,29.99,SW,221,0.0,0.0,97,0.00,,,0.00,0,Wunderground v.1.15,2013-03-26 13:10:00,
2013-03-26 06:15:00,46.7,45.9,29.99,South,176,0.0,0.0,97,0.00,,,0.00,0,Wunderground v.1.15,2013-03-26 13:15:00,
2013-03-26 06:20:00,46.7,45.9,29.99,SSW,206,1.0,1.0,97,0.00,,,0.00,0,Wunderground v.1.15,2013-03-26 13:20:00,
2013-03-26 06:30:00,46.7,45.9,29.99,South,182,0.0,0.0,97,0.00,,,0.00,0,Wunderground v.1.15,2013-03-26 13:30:00,
2013-03-26 06:40:00,46.6,45.8,30.00,SSW,198,3.0,3.0,97,0.00,,,0.00,0,Wunderground v.1.15,2013-03-26 13:40:00,
2013-03-26 06:45:00,46.5,45.7,30.00,WSW,246,0.0,3.0,97,0.00,,,0.00,0,Wunderground v.1.15,2013-03-26 13:45:00,
2013-03-26 06:50:00,46.5,45.7,30.00,SW,218,1.0,1.0,97,0.00,,,0.00,0,Wunderground v.1.15,2013-03-26 13:50:00,
2013-03-26 07:00:00,46.4,45.9,30.00,SSW,210,1.0,1.0,98,0.00,,,0.00,0,Wunderground v.1.15,2013-03-26 14:00:00,
2013-03-26 07:10:00,46.4,45.9,30.00,South,182,0.0,0.0,98,0.00,,,0.00,0,Wunderground v.1.15,2013-03-26 14:10:00,
2013-03-26 07:15:00,46.5,46.0,30.00,SSW,204,0.0,0.0,98,0.00,,,0.00,0,Wunderground v.1.15,2013-03-26 14:15:00,
2013-03-26 07:20:00,46.6,46.1,30.00,SSW,201,1.0,1.0,98,0.00,,,0.00,0,Wunderground v.1.15,2013-03-26 14:20:00,
2013-03-26 07:30:00,46.7,46.2,30.00,SSW,203,0.0,0.0,98,0.00,,,0.00,0,Wunderground v.1.15,2013-03-26 14:30:00,
2013-03-26 07:40:00,46.9,46.4,30.00,South,191,0.0,0.0,98,0.00,,,0.00,0,Wunderground v.1.15,2013-03-26 14:40:00,
2013-03-26 07:45:00,47.0,46.5,30.00,SSW,202,1.0,1.0,98,0.00,,,0.00,0,Wunderground v.1.15,2013-03-26 14:45:00,
2013-03-26 07:50:00,47.1,46.6,30.00,South,185,0.0,0.0,98,0.00,,,0.00,0,Wunderground v.1.15,2013-03-26 14:50:00,
2013-03-26 08:00:00,47.3,46.5,30.01,SW,215,1.0,1.0,97,0.00,,,0.00,0,Wunderground v.1.15,2013-03-26 15:00:00,
2013-03-26 08:05:00,47.4,46.6,30.01,SSW,204,0.0,1.0,97,0.00,,,0.00,0,Wunderground v.1.15,2013-03-26 15:05:00,
2013-03-26 08:10:00,47.4,46.6,30.01,WSW,241,0.0,0.0,97,0.00,,,0.00,0,Wunderground v.1.15,2013-03-26 15:10:00,
2013-03-26 08:20:00,47.4,46.6,30.01,SW,214,0.0,0.0,97,0.00,,,0.00,0,Wunderground v.1.15,2013-03-26 15:20:00,
2013-03-26 08:30:00,48.2,47.4,30.00,SSW,196,0.0,0.0,97,0.00,,,0.00,0,Wunderground v.1.15,2013-03-26 15:30:00,
2013-03-26 08:35:00,48.7,47.9,30.00,West,276,1.0,1.0,97,0.00,,,0.00,0,Wunderground v.1.15,2013-03-26 15:35:00,
2013-03-26 08:40:00,49.0,47.9,30.01,SSW,196,3.0,3.0,96,0.00,,,0.00,0,Wunderground v.1.15,2013-03-26 15:40:00,
2013-03-26 08:50:00,49.2,47.8,30.01,SSW,194,1.0,1.0,95,0.00,,,0.00,0,Wunderground v.1.15,2013-03-26 15:50:00,
2013-03-26 09:00:00,49.5,47.8,30.01,South,183,1.0,1.0,94,0.00,,,0.00,0,Wunderground v.1.15,2013-03-26 16:00:00,
2013-03-26 09:05:00,49.7,48.0,30.01,SSW,202,2.0,2.0,94,0.00,,,0.00,0,Wunderground v.1.15,2013-03-26 16:05:00,
2013-03-26 09:10:00,50.0,48.3,30.01,South,185,4.0,4.0,94,0.00,,,0.00,0,Wunderground v.1.15,2013-03-26 16:10:00,
2013-03-26 09:20:00,50.0,48.3,30.01,SSW,196,2.0,2.0,94,0.00,,,0.00,0,Wunderground v.1.15,2013-03-26 16:20:00,
2013-03-26 09:30:00,50.5,48.3,30.01,SW,233,1.0,1.0,92,0.00,,,0.00,0,Wunderground v.1.15,2013-03-26 16:30:00,
2013-03-26 09:39:00,50.5,48.3,30.01,SW,215,3.0,3.0,92,0.00,,,0.00,0,Wunderground v.1.15,2013-03-26 16:39:00,
2013-03-26 09:45:00,50.6,48.4,30.01,SSW,209,2.0,3.0,92,0.00,,,0.00,0,Wunderground v.1.15,2013-03-26 16:45:00,
2013-03-26 09:55:00,51.3,48.8,30.01,SSW,195,3.0,3.0,91,0.00,,,0.00,0,Wunderground v.1.15,2013-03-26 16:55:00,
2013-03-26 10:00:00,51.6,48.8,30.01,SSW,196,0.0,0.0,90,0.00,,,0.00,0,Wunderground v.1.15,2013-03-26 17:00:00,
2013-03-26 10:05:00,52.5,49.7,30.01,West,278,3.0,3.0,90,0.00,,,0.00,0,Wunderground v.1.15,2013-03-26 17:05:00,
2013-03-26 10:10:00,52.7,49.2,30.01,WNW,293,1.0,1.0,88,0.00,,,0.00,0,Wunderground v.1.15,2013-03-26 17:10:00,
2013-03-26 11:14:00,56.9,50.1,59.48,SSW,193,2.0,2.0,78,0.00,,,0.00,0,Wunderground v.1.15,2013-03-26 18:14:00,
2013-03-26 11:19:00,57.3,50.5,59.48,NW,310,1.0,1.0,78,0.00,,,0.00,0,Wunderground v.1.15,2013-03-26 18:19:00,
2013-03-26 11:29:00,57.5,50.3,59.48,South,191,1.0,1.0,77,0.00,,,0.00,0,Wunderground v.1.15,2013-03-26 18:29:00,
2013-03-26 11:34:00,57.6,50.8,59.48,SSE,159,0.0,1.0,78,0.00,,,0.00,0,Wunderground v.1.15,2013-03-26 18:34:00,
2013-03-26 11:39:00,58.7,51.9,59.48,SSW,197,2.0,2.0,78,0.00,,,0.00,0,Wunderground v.1.15,2013-03-26 18:39:00,
2013-03-26 11:49:00,59.7,52.1,59.47,West,263,1.0,1.0,76,0.00,,,0.00,0,Wunderground v.1.15,2013-03-26 18:49:00,
2013-03-26 11:54:00,60.6,52.6,59.47,SSE,147,2.0,2.0,75,0.00,,,0.00,0,Wunderground v.1.15,2013-03-26 18:54:00,
2013-03-26 11:59:00,61.4,53.0,59.47,South,183,1.0,1.0,74,0.00,,,0.00,0,Wunderground v.1.15,2013-03-26 18:59:00,
2013-03-26 12:10:00,61.3,52.6,59.47,SSE,159,1.0,1.0,73,0.00,,,0.00,0,Wunderground v.1.15,2013-03-26 19:10:00,
2013-03-26 12:15:00,62.1,53.0,59.47,NW,316,2.0,2.0,72,0.00,,,0.00,0,Wunderground v.1.15,2013-03-26 19:15:00,
2013-03-26 12:25:00,62.1,52.6,59.47,WSW,242,0.0,2.0,71,0.00,,,0.00,0,Wunderground v.1.15,2013-03-26 19:25:00,
2013-03-26 12:30:00,63.1,52.8,59.47,SW,223,2.0,2.0,69,0.00,,,0.00,0,Wunderground v.1.15,2013-03-26 19:30:00,
2013-03-26 12:39:00,62.5,53.0,59.47,NNW,328,4.0,4.0,71,0.00,,,0.00,0,Wunderground v.1.15,2013-03-26 19:39:00,
2013-03-26 12:44:00,62.5,53.0,59.47,WNW,301,3.0,4.0,71,0.00,,,0.00,0,Wunderground v.1.15,2013-03-26 19:44:00,
2013-03-26 12:49:00,62.4,52.9,59.46,NNW,345,1.0,1.0,71,0.00,,,0.00,0,Wunderground v.1.15,2013-03-26 19:49:00,
2013-03-26 12:54:00,62.6,53.1,59.47,NW,314,3.0,3.0,71,0.00,,,0.00,0,Wunderground v.1.15,2013-03-26 19:54:00,
2013-03-26 13:04:00,64.3,53.1,29.99,NW,310,1.0,1.0,67,0.00,,,0.00,0,Wunderground v.1.15,2013-03-26 20:04:00,
2013-03-26 13:10:00,64.4,53.6,29.99,SSW,193,3.0,3.0,68,0.00,,,0.00,0,Wunderground v.1.15,2013-03-26 20:10:00,
2013-03-26 13:15:00,65.2,52.7,29.99,SSE,159,1.0,3.0,64,0.00,,,0.00,0,Wunderground v.1.15,2013-03-26 20:15:00,
2013-03-26 13:24:00,65.1,52.6,29.99,SW,214,0.0,1.0,64,0.00,,,0.00,0,Wunderground v.1.15,2013-03-26 20:24:00,
2013-03-26 13:29:00,65.4,52.5,29.99,WNW,285,0.0,0.0,63,0.00,,,0.00,0,Wunderground v.1.15,2013-03-26 20:29:00,
2013-03-26 13:40:00,66.3,55.4,29.99,South,186,1.0,1.0,68,0.00,,,0.00,0,Wunderground v.1.15,2013-03-26 20:40:00,
2013-03-26 13:44:00,66.4,55.1,29.98,SSW,192,2.0,2.0,67,0.00,,,0.00,0,Wunderground v.1.15,2013-03-26 20:44:00,
2013-03-26 13:54:00,66.4,54.3,29.98,North,349,1.0,1.0,65,0.00,,,0.00,0,Wunderground v.1.15,2013-03-26 20:54:00,
2013-03-26 14:00:00,67.0,54.8,29.98,WNW,290,1.0,1.0,65,0.00,,,0.00,0,Wunderground v.1.15,2013-03-26 21:00:00,
2013-03-26 14:05:00,67.0,54.8,29.98,SSW,202,3.0,3.0,65,0.00,,,0.00,0,Wunderground v.1.15,2013-03-26 21:05:00,
2013-03-26 14:14:00,66.6,55.3,29.97,SSW,192,3.0,3.0,67,0.00,,,0.00,0,Wunderground v.1.15,2013-03-26 21:14:00,
2013-03-26 14:24:00,66.6,55.7,29.97,SSW,195,1.0,1.0,68,0.00,,,0.00,0,Wunderground v.1.15,2013-03-26 21:24:00,
2013-03-26 14:29:00,67.4,56.1,29.97,SW,219,0.0,1.0,67,0.00,,,0.00,0,Wunderground v.1.15,2013-03-26 21:29:00,
2013-03-26 14:39:00,68.1,54.1,29.97,WNW,298,1.0,1.0,61,0.00,,,0.00,0,Wunderground v.1.15,2013-03-26 21:39:00,
2013-03-26 14:44:00,67.9,54.0,29.96,SSW,195,5.0,5.0,61,0.00,,,0.00,0,Wunderground v.1.15,2013-03-26 21:44:00,
2013-03-26 14:49:00,66.8,53.8,29.97,SSW,198,3.0,5.0,63,0.00,,,0.00,0,Wunderground v.1.15,2013-03-26 21:49:00,
2013-03-26 14:54:00,66.8,53.8,29.96,SW,218,4.0,4.0,63,0.00,,,0.00,0,Wunderground v.1.15,2013-03-26 21:54:00,
2013-03-26 15:00:00,67.0,53.5,29.96,SSW,210,4.0,4.0,62,0.00,,,0.00,0,Wunderground v.1.15,2013-03-26 22:00:00,
2013-03-26 15:05:00,66.6,53.2,29.96,WSW,245,2.0,4.0,62,0.00,,,0.00,0,Wunderground v.1.15,2013-03-26 22:05:00,
2013-03-26 15:15:00,66.7,53.3,29.95,SSW,211,3.0,7.0,62,0.00,,,0.00,0,Wunderground v.1.15,2013-03-26 22:15:00,
2013-03-26 15:24:00,66.6,53.2,29.95,SSW,202,2.0,4.0,62,0.00,,,0.00,0,Wunderground v.1.15,2013-03-26 22:24:00,
2013-03-26 15:29:00,67.0,53.5,29.95,SW,216,1.0,1.0,62,0.00,,,0.00,0,Wunderground v.1.15,2013-03-26 22:29:00,
2013-03-26 15:34:00,67.5,53.6,29.95,SSW,202,4.0,4.0,61,0.00,,,0.00,0,Wunderground v.1.15,2013-03-26 22:34:00,
2013-03-26 15:39:00,67.5,53.6,29.95,SSW,198,4.0,4.0,61,0.00,,,0.00,0,Wunderground v.1.15,2013-03-26 22:39:00,
2013-03-26 15:49:00,67.6,53.7,29.95,SSW,200,3.0,3.0,61,0.00,,,0.00,0,Wunderground v.1.15,2013-03-26 22:49:00,
2013-03-26 15:54:00,67.6,53.2,29.95,SSW,207,5.0,5.0,60,0.00,,,0.00,0,Wunderground v.1.15,2013-03-26 22:54:00,
2013-03-26 16:00:00,67.5,53.1,29.95,SSW,194,5.0,5.0,60,0.00,,,0.00,0,Wunderground v.1.15,2013-03-26 23:00:00,
2013-03-26 16:05:00,67.6,53.2,29.95,SSW,195,6.0,6.0,60,0.00,,,0.00,0,Wunderground v.1.15,2013-03-26 23:05:00,
2013-03-26 16:14:00,68.2,53.3,29.94,WSW,252,1.0,4.0,59,0.00,,,0.00,0,Wunderground v.1.15,2013-03-26 23:14:00,
2013-03-26 16:19:00,68.5,53.6,29.94,SSW,203,1.0,1.0,59,0.00,,,0.00,0,Wunderground v.1.15,2013-03-26 23:19:00,
2013-03-26 16:24:00,68.7,56.0,29.94,WNW,285,1.0,1.0,64,0.00,,,0.00,0,Wunderground v.1.15,2013-03-26 23:24:00,
2013-03-26 16:30:00,68.7,55.2,29.94,SSW,201,1.0,1.0,62,0.00,,,0.00,0,Wunderground v.1.15,2013-03-26 23:30:00,
2013-03-26 16:40:00,68.4,54.9,29.94,SSW,195,2.0,2.0,62,0.00,,,0.00,0,Wunderground v.1.15,2013-03-26 23:40:00,
2013-03-26 16:49:00,67.7,54.6,29.93,South,183,0.0,0.0,63,0.00,,,0.00,0,Wunderground v.1.15,2013-03-26 23:49:00,
2013-03-26 16:59:00,67.6,55.0,29.93,NW,318,0.0,0.0,64,0.00,,,0.00,0,Wunderground v.1.15,2013-03-26 23:59:00,
2013-03-26 17:09:00,67.1,54.5,29.93,NW,320,5.0,5.0,64,0.00,,,0.00,0,Wunderground v.1.15,2013-03-27 00:09:00,
2013-03-26 17:19:00,66.9,54.7,29.93,NNW,334,2.0,2.0,65,0.00,,,0.00,0,Wunderground v.1.15,2013-03-27 00:19:00,
2013-03-26 17:24:00,66.8,54.2,29.93,NW,308,6.0,6.0,64,0.00,,,0.00,0,Wunderground v.1.15,2013-03-27 00:24:00,
2013-03-26 17:29:00,66.4,53.8,29.93,NW,305,4.0,4.0,64,0.00,,,0.00,0,Wunderground v.1.15,2013-03-27 00:29:00,
2013-03-26 17:40:00,66.0,52.6,29.93,NW,311,4.0,4.0,62,0.00,,,0.00,0,Wunderground v.1.15,2013-03-27 00:40:00,
2013-03-26 17:45:00,66.0,52.2,29.93,North,352,4.0,4.0,61,0.00,,,0.00,0,Wunderground v.1.15,2013-03-27 00:45:00,
2013-03-26 17:54:00,65.5,51.7,29.93,NW,323,2.0,5.0,61,0.00,,,0.00,0,Wunderground v.1.15,2013-03-27 00:54:00,
2013-03-26 17:59:00,65.4,51.6,29.94,NNW,339,5.0,5.0,61,0.00,,,0.00,0,Wunderground v.1.15,2013-03-27 00:59:00,
2013-03-26 18:09:00,65.2,51.4,29.94,NW,323,2.0,2.0,61,0.00,,,0.00,0,Wunderground v.1.15,2013-03-27 01:09:00,
2013-03-26 18:14:00,65.0,51.7,29.93,NW,322,3.0,3.0,62,0.00,,,0.00,0,Wunderground v.1.15,2013-03-27 01:14:00,
2013-03-26 18:19:00,65.0,52.1,29.94,SSW,196,2.0,2.0,63,0.00,,,0.00,0,Wunderground v.1.15,2013-03-27 01:19:00,
2013-03-26 18:29:00,64.3,52.3,29.94,SSW,199,4.0,4.0,65,0.00,,,0.00,0,Wunderground v.1.15,2013-03-27 01:29:00,
2013-03-26 18:39:00,63.0,51.9,29.94,South,182,0.0,0.0,67,0.00,,,0.00,0,Wunderground v.1.15,2013-03-27 01:39:00,
2013-03-26 18:44:00,62.4,51.3,29.94,SSW,195,4.0,4.0,67,0.00,,,0.00,0,Wunderground v.1.15,2013-03-27 01:44:00,
2013-03-26 18:49:00,62.0,51.3,29.94,South,182,2.0,2.0,68,0.00,,,0.00,0,Wunderground v.1.15,2013-03-27 01:49:00,
2013-03-26 18:59:00,61.2,51.3,29.94,South,187,2.0,2.0,70,0.00,,,0.00,0,Wunderground v.1.15,2013-03-27 01:59:00,
2013-03-26 19:04:00,60.7,51.2,29.94,South,175,0.0,2.0,71,0.00,,,0.00,0,Wunderground v.1.15,2013-03-27 02:04:00,
2013-03-26 19:09:00,60.3,50.9,29.94,SW,220,1.0,1.0,71,0.00,,,0.00,0,Wunderground v.1.15,2013-03-27 02:09:00,
2013-03-26 19:19:00,59.4,50.7,29.95,SSW,194,3.0,3.0,73,0.00,,,0.00,0,Wunderground v.1.15,2013-03-27 02:19:00,
2013-03-26 19:24:00,59.1,50.8,29.95,SSW,202,2.0,3.0,74,0.00,,,0.00,0,Wunderground v.1.15,2013-03-27 02:24:00,
2013-03-26 19:29:00,58.7,50.4,29.95,South,188,5.0,5.0,74,0.00,,,0.00,0,Wunderground v.1.15,2013-03-27 02:29:00,
2013-03-26 19:39:00,58.0,50.5,29.95,SSW,195,2.0,2.0,76,0.00,,,0.00,0,Wunderground v.1.15,2013-03-27 02:39:00,
2013-03-26 19:44:00,57.5,50.0,29.95,South,182,0.0,2.0,76,0.00,,,0.00,0,Wunderground v.1.15,2013-03-27 02:44:00,
2013-03-26 19:49:00,57.2,50.1,29.95,South,188,1.0,1.0,77,0.00,,,0.00,0,Wunderground v.1.15,2013-03-27 02:49:00,
2013-03-26 19:59:00,56.6,50.2,29.96,South,190,0.0,0.0,79,0.00,,,0.00,0,Wunderground v.1.15,2013-03-27 02:59:00,
2013-03-26 20:04:00,56.3,49.9,29.96,South,190,0.0,0.0,79,0.00,,,0.00,0,Wunderground v.1.15,2013-03-27 03:04:00,
2013-03-26 20:09:00,56.1,49.7,29.96,South,190,0.0,0.0,79,0.00,,,0.00,0,Wunderground v.1.15,2013-03-27 03:09:00,
2013-03-26 20:15:00,55.9,49.5,29.96,SSW,194,2.0,2.0,79,0.00,,,0.00,0,Wunderground v.1.15,2013-03-27 03:15:00,
2013-03-26 20:20:00,55.7,50.3,29.96,SSW,192,0.0,0.0,82,0.00,,,0.00,0,Wunderground v.1.15,2013-03-27 03:20:00,
2013-03-26 20:29:00,55.2,49.1,29.97,SSW,192,2.0,2.0,80,0.00,,,0.00,0,Wunderground v.1.15,2013-03-27 03:29:00,
2013-03-26 20:35:00,55.0,49.3,29.97,SSW,192,0.0,2.0,81,0.00,,,0.00,0,Wunderground v.1.15,2013-03-27 03:35:00,
2013-03-26 20:40:00,54.9,48.8,29.97,SSW,192,0.0,0.0,80,0.00,,,0.00,0,Wunderground v.1.15,2013-03-27 03:40:00,
2013-03-26 20:49:00,54.6,48.9,29.97,SSW,192,0.0,0.0,81,0.00,,,0.00,0,Wunderground v.1.15,2013-03-27 03:49:00,
2013-03-26 20:59:00,54.5,48.5,29.97,South,190,1.0,1.0,80,0.00,,,0.00,0,Wunderground v.1.15,2013-03-27 03:59:00,
2013-03-26 21:04:00,54.4,48.7,29.97,SSW,208,1.0,1.0,81,0.00,,,0.00,0,Wunderground v.1.15,2013-03-27 04:04:00,
2013-03-26 21:10:00,54.3,48.6,29.97,SSW,194,0.0,0.0,81,0.00,,,0.00,0,Wunderground v.1.15,2013-03-27 04:10:00,
2013-03-26 21:19:00,54.1,48.4,29.97,SW,217,0.0,0.0,81,0.00,,,0.00,0,Wunderground v.1.15,2013-03-27 04:19:00,
2013-03-26 21:24:00,53.9,48.5,29.97,SW,217,0.0,0.0,82,0.00,,,0.00,0,Wunderground v.1.15,2013-03-27 04:24:00,
2013-03-26 21:29:00,53.7,48.3,29.97,SW,217,0.0,0.0,82,0.00,,,0.00,0,Wunderground v.1.15,2013-03-27 04:29:00,
2013-03-26 21:35:00,53.6,48.2,29.98,SW,223,0.0,0.0,82,0.00,,,0.00,0,Wunderground v.1.15,2013-03-27 04:35:00,
2013-03-26 21:40:00,53.5,48.5,29.98,SW,231,0.0,0.0,83,0.00,,,0.00,0,Wunderground v.1.15,2013-03-27 04:40:00,
2013-03-26 21:49:00,53.4,48.4,29.98,SW,231,0.0,0.0,83,0.00,,,0.00,0,Wunderground v.1.15,2013-03-27 04:49:00,
2013-03-26 21:55:00,53.3,48.3,29.98,SW,231,0.0,0.0,83,0.00,,,0.00,0,Wunderground v.1.15,2013-03-27 04:55:00,
2013-03-26 22:00:00,53.2,48.2,29.98,SW,231,0.0,0.0,83,0.00,,,0.00,0,Wunderground v.1.15,2013-03-27 05:00:00,
2013-03-26 22:09:00,53.0,48.0,29.98,SW,231,0.0,0.0,83,0.00,,,0.00,0,Wunderground v.1.15,2013-03-27 05:09:00,
2013-03-26 22:15:00,52.8,47.5,29.98,SW,231,0.0,0.0,82,0.00,,,0.00,0,Wunderground v.1.15,2013-03-27 05:15:00,
2013-03-26 22:20:00,52.7,47.4,29.98,SW,231,0.0,0.0,82,0.00,,,0.00,0,Wunderground v.1.15,2013-03-27 05:20:00,
2013-03-26 22:29:00,52.4,46.7,29.98,SW,231,0.0,0.0,81,0.00,,,0.00,0,Wunderground v.1.15,2013-03-27 05:29:00,
2013-03-26 22:39:00,52.1,46.8,29.98,South,182,2.0,2.0,82,0.00,,,0.00,0,Wunderground v.1.15,2013-03-27 05:39:00,
2013-03-26 22:44:00,51.9,46.6,29.98,South,182,0.0,2.0,82,0.00,,,0.00,0,Wunderground v.1.15,2013-03-27 05:44:00,
2013-03-26 22:49:00,51.6,46.3,29.99,South,182,0.0,0.0,82,0.00,,,0.00,0,Wunderground v.1.15,2013-03-27 05:49:00,
2013-03-26 22:59:00,51.2,46.2,29.99,South,182,0.0,0.0,83,0.00,,,0.00,0,Wunderground v.1.15,2013-03-27 05:59:00,
2013-03-26 23:04:00,51.1,46.4,29.99,South,182,1.0,1.0,84,0.00,,,0.00,0,Wunderground v.1.15,2013-03-27 06:04:00,
2013-03-26 23:09:00,51.3,46.6,29.99,ESE,105,2.0,2.0,84,0.00,,,0.00,0,Wunderground v.1.15,2013-03-27 06:09:00,
2013-03-26 23:19:00,51.3,46.3,30.00,ESE,103,0.0,0.0,83,0.00,,,0.00,0,Wunderground v.1.15,2013-03-27 06:19:00,
2013-03-26 23:29:00,50.7,46.0,29.99,ESE,103,2.0,2.0,84,0.00,,,0.00,0,Wunderground v.1.15,2013-03-27 06:29:00,
2013-03-26 23:34:00,50.4,46.1,30.00,South,180,0.0,2.0,85,0.00,,,0.00,0,Wunderground v.1.15,2013-03-27 06:34:00,
2013-03-26 23:44:00,50.1,45.5,29.99,South,180,0.0,0.0,84,0.00,,,0.00,0,Wunderground v.1.15,2013-03-27 06:44:00,
2013-03-26 23:49:00,50.0,45.7,30.00,South,180,0.0,0.0,85,0.00,,,0.00,0,Wunderground v.1.15,2013-03-27 06:49:00,
2013-03-26 23:55:00,49.8,45.8,29.99,South,180,0.0,0.0,86,0.00,,,0.00,0,Wunderground v.1.15,2013-03-27 06:55:00,